[[{"header":{"parameterUnit":"m.s-1","parameterCategory":1,"la1":30.2991,"la2":30.254,"lo1":-89.0895,"lo2":-89.0444,"dy":0.0017,"dx":0.0017,"nx":28,"ny":28,"refTime":"2024-07-03T21:00:00:Z","depth":0,"parameterNumber":2,"parameterNumberName":"U-component_of_WINDS"},"data":[0,0,0,0,0,0,0,0,0,0,0,0,0,0,0,0,0,0,0,0,0,0,0,0,0,0,0,0,0,0,0,0,0,0,0,0,0,0,0,0,0,0,0,0,0,0,0,0,0,0,0,0,0,0,0,0,0,0,1.783,1.7831,0,1.7857,1.7857,1.7858,1.7829,1.7828,1.7827,1.7826,1.7857,1.7859,1.786,0,0,0,0,0,0,0,0,0,0,0,0,0,1.7759,1.776,1.783,1.7831,1.7831,1.7857,1.7857,1.7858,1.783,1.7828,1.7827,1.7826,1.7856,1.7858,1.7861,0,0,0,0,0,0,0,0,0,0,0,0,0,1.7788,1.776,1.783,1.782,1.7819,1.7857,1.7857,1.7858,1.783,1.7828,1.7827,1.7825,1.7856,1.7858,1.7861,1.7911,0,0,1.7869,1.7871,0,0,0,0,0,0,0,0,1.7786,1.7791,1.7821,1.7821,1.782,1.7838,1.7843,1.7876,1.783,1.7826,1.7826,1.7824,1.7852,1.7855,1.7864,1.7912,1.7914,1.787,1.7871,1.7872,1.7873,0,0,0,0,0,0,0,1.7784,1.7789,1.7841,1.7822,1.7821,1.7815,1.7818,1.7849,1.7848,1.7826,1.7824,1.7828,1.7852,1.7861,1.7864,1.7914,1.787,1.7872,1.7874,1.7875,1.8005,1.8006,0,0,0,0,0,0,1.7783,1.7788,1.784,1.7842,1.7799,1.7818,1.7821,1.7834,1.7848,1.7848,1.7829,1.7826,1.7857,1.7861,1.7865,1.7924,1.7872,1.7875,1.7877,1.8003,1.8005,1.8007,0,0,0,0,0,0,1.7782,1.7788,1.7839,1.7814,1.782,1.7821,1.7836,1.7836,1.7845,1.785,1.785,1.7839,1.7856,1.7861,1.7899,1.7925,1.7876,1.7879,1.8001,1.8004,1.8006,1.8042,0,0,0,0,0,0,1.778,1.7788,1.7806,1.7815,1.7822,1.7872,1.7838,1.7837,1.7849,1.7846,1.7859,1.7859,1.7855,1.7895,1.7902,1.7927,1.7881,1.7999,1.8002,1.8005,1.8038,1.8046,1.8052,0,0,0,0,0,1.7777,1.7815,1.7807,1.7813,1.7844,1.7873,1.7877,1.7871,1.7852,1.787,1.7873,1.7859,1.7921,1.79,1.7907,1.7933,1.7997,1.8001,1.8005,1.8036,1.8044,1.8051,0,0,0,0,0,0,1.781,1.7816,1.7807,1.7849,1.7861,1.7868,1.7891,1.788,1.7898,1.7894,1.7887,1.789,1.793,1.7936,1.7912,1.7983,1.7956,1.7962,1.7977,1.7985,1.7991,1.7989,1.7883,0,0,0,0,0,1.7822,1.7844,1.7849,1.7886,1.7892,1.7891,1.7903,1.7897,1.791,1.7915,1.7921,1.7934,1.7956,1.7971,1.7992,1.804,1.8042,1.8062,1.8068,1.8074,1.8078,1.8104,1.8112,1.802,1.802,1.802,0,0,1.7847,1.7854,1.7868,1.7893,1.7901,1.7925,1.7895,1.7922,1.7939,1.7919,1.7954,1.796,1.7974,1.8017,1.8036,1.8023,1.8105,1.8079,1.8083,1.8085,1.8109,1.8117,1.8125,1.8023,1.8023,1.8022,0,0,1.7905,1.7912,1.7943,1.7952,1.7965,1.7964,1.7972,1.7981,1.7983,1.8019,1.8004,1.8026,1.8065,1.8075,1.8086,1.8149,1.8136,1.8156,1.819,1.8215,1.8222,1.8228,1.825,1.8258,1.8161,1.8161,1.8161,0,1.7935,1.7969,1.7961,1.7988,1.7999,1.7982,1.8013,1.8023,1.8042,1.8051,1.8036,1.8084,1.8093,1.8138,1.8153,1.8163,1.8171,1.8154,1.8221,1.8228,1.8233,1.8254,1.8262,1.8164,1.8163,1.8163,1.8163,0,1.8004,1.8029,1.8052,1.807,1.8085,1.8114,1.8112,1.8128,1.8121,1.8122,1.8159,1.8169,1.8191,1.8202,1.8196,1.8246,1.8237,1.8222,1.8195,1.8244,1.8263,1.8271,1.8167,1.8166,1.8165,1.8165,0,0,1.8082,1.8095,1.8104,1.8112,1.8125,1.8144,1.8174,1.8195,1.8208,1.8223,1.8247,1.8281,1.8267,1.8279,1.8275,1.8296,1.8345,1.8279,1.8279,1.8289,1.84,1.841,1.8419,1.8337,1.8339,1.834,1.8398,0,1.8139,1.8188,1.8182,1.8229,1.8252,1.8236,1.8261,1.8273,1.8275,1.8295,1.8298,1.8322,1.8302,1.8309,1.833,1.8334,1.8366,1.833,1.836,1.8361,1.8355,1.8429,1.844,1.8494,1.8406,1.8407,1.8408,0,1.8211,1.8227,1.8276,1.8286,1.8295,1.8318,1.8337,1.8356,1.837,1.837,1.8384,1.8375,1.8406,1.8379,1.8421,1.8397,1.8409,1.8413,1.8415,1.8416,1.8386,1.8431,1.8512,1.8519,1.842,1.8419,1.8418,0,1.8261,1.8295,1.8329,1.8336,1.8349,1.8365,1.8372,1.8383,1.8396,1.8414,1.8422,1.8443,1.8455,1.8472,1.847,1.8451,1.8512,1.8486,1.8513,1.8513,1.8525,1.8524,1.8607,1.8536,1.8536,1.8536,1.8536,0,1.8324,1.8354,1.8351,1.8372,1.8406,1.84,1.8434,1.8439,1.8449,1.8471,1.846,1.8481,1.8478,1.8499,1.8499,1.8533,1.8539,1.854,1.8539,1.854,1.854,1.8547,1.8542,1.8538,1.8537,1.8537,1.8537,0,1.8384,1.8384,1.8419,1.8428,1.8432,1.8456,1.8464,1.8484,1.8486,1.8514,1.852,1.8524,1.8548,1.8548,1.8577,1.8577,1.8618,1.8614,1.8613,1.8612,1.8639,1.8636,1.8728,1.8739,1.8662,1.8663,1.8663,0,1.8423,1.8446,1.8458,1.8472,1.8479,1.8501,1.8514,1.851,1.8524,1.8541,1.8559,1.8583,1.8601,1.8641,1.8647,1.8669,1.8664,1.8695,1.8667,1.8667,1.8663,1.8661,1.8663,1.87,1.87,1.8701,1.8702,0,1.8493,1.8492,1.851,1.8529,1.8545,1.856,1.8574,1.8586,1.8584,1.8601,1.8625,1.8639,1.8668,1.8692,1.8713,1.8721,1.8711,1.8711,1.8718,1.8718,1.8716,1.8716,1.8626,1.8708,1.8708,1.8707,1.8707,1.8706,1.8543,1.8563,1.8574,1.8595,1.8605,1.8619,1.8637,1.8642,1.8662,1.8684,1.8681,1.8708,1.8722,1.8749,1.8759,1.8781,1.877,1.8781,1.8784,1.8786,1.8788,1.8714,1.8785,1.8785,1.8785,1.8785,1.8785,0,1.8611,1.8617,1.8637,1.8656,1.8674,1.8663,1.8678,1.8693,1.8717,1.873,1.8748,1.8777,1.88,1.8807,1.883,1.8846,1.8842,1.8852,1.885,1.8851,1.8797,1.8788,1.8854,1.8854,1.8854,1.8854,1.8854,1.8854,1.8648,1.868,1.868,1.8718,1.8724,1.875,1.876,1.8772,1.8782,1.8814,1.8833,1.8837,1.8849,1.8872,1.8893,1.8894,1.8903,1.8914,1.8914,1.8862,1.8855,1.8849,1.884,1.8916,1.8916,1.8966,1.8966,1.8967]},{"header":{"parameterUnit":"m.s-1","parameterCategory":1,"la1":30.2991,"la2":30.254,"lo1":-89.0895,"lo2":-89.0444,"dy":0.0017,"dx":0.0017,"nx":28,"ny":28,"refTime":"2024-07-03T21:00:00:Z","depth":0,"parameterNumber":3,"parameterNumberName":"V-component_of_WINDS"},"data":[0,0,0,0,0,0,0,0,0,0,0,0,0,0,0,0,0,0,0,0,0,0,0,0,0,0,0,0,0,0,0,0,0,0,0,0,0,0,0,0,0,0,0,0,0,0,0,0,0,0,0,0,0,0,0,0,0,0,2.3973,2.3973,0,2.3969,2.3969,2.3969,2.3955,2.3954,2.3954,2.3954,2.3948,2.3948,2.3948,0,0,0,0,0,0,0,0,0,0,0,0,0,2.3969,2.3969,2.3973,2.3973,2.3973,2.3969,2.3969,2.3969,2.3955,2.3954,2.3954,2.3954,2.3948,2.3948,2.3948,0,0,0,0,0,0,0,0,0,0,0,0,0,2.3969,2.397,2.3973,2.3966,2.3965,2.3969,2.3969,2.3969,2.3955,2.3954,2.3954,2.3953,2.3948,2.3948,2.3948,2.3959,0,0,2.3949,2.3949,0,0,0,0,0,0,0,0,2.3969,2.3969,2.3967,2.3966,2.3965,2.3962,2.3965,2.3965,2.3955,2.3959,2.3954,2.3953,2.3953,2.3953,2.3953,2.3958,2.3958,2.3949,2.3949,2.3949,2.3949,0,0,0,0,0,0,0,2.3969,2.3969,2.3971,2.3967,2.3966,2.3962,2.3962,2.3965,2.3958,2.3958,2.3957,2.3957,2.3952,2.3953,2.3952,2.3958,2.3949,2.3949,2.3949,2.3949,2.3973,2.3974,0,0,0,0,0,0,2.397,2.3969,2.3971,2.3971,2.3966,2.3963,2.3962,2.3963,2.3958,2.3957,2.3957,2.3956,2.3952,2.3952,2.3952,2.3964,2.3949,2.3949,2.3949,2.3973,2.3973,2.3974,0,0,0,0,0,0,2.397,2.397,2.3972,2.397,2.397,2.3963,2.3965,2.3963,2.3964,2.3958,2.3956,2.3959,2.3952,2.3952,2.3957,2.3964,2.3949,2.395,2.3972,2.3973,2.3973,2.3989,0,0,0,0,0,0,2.397,2.397,2.3974,2.397,2.397,2.3977,2.3965,2.3964,2.3964,2.3963,2.3959,2.3957,2.3952,2.3957,2.3958,2.3964,2.395,2.3971,2.3972,2.3973,2.3988,2.399,2.3992,0,0,0,0,0,2.397,2.3978,2.3974,2.3975,2.3974,2.3977,2.3977,2.3971,2.3965,2.3969,2.3965,2.3958,2.3964,2.3958,2.3958,2.3965,2.3971,2.3972,2.3973,2.3987,2.3989,2.3992,0,0,0,0,0,0,2.3982,2.3977,2.3973,2.398,2.3979,2.3975,2.3979,2.3974,2.3974,2.3973,2.3965,2.3964,2.3971,2.3968,2.3962,2.3975,2.3966,2.3967,2.3976,2.3979,2.3981,2.3981,2.395,0,0,0,0,0,2.3986,2.3989,2.3984,2.3991,2.3991,2.3985,2.3986,2.3982,2.398,2.398,2.3976,2.3975,2.3977,2.3978,2.3979,2.3988,2.3987,2.3993,2.3995,2.3997,2.3997,2.4003,2.4005,2.3978,2.3978,2.3978,0,0,2.3993,2.3991,2.3993,2.3993,2.3992,2.3995,2.3985,2.3988,2.3991,2.398,2.3985,2.3983,2.3981,2.3988,2.3992,2.3987,2.4005,2.3998,2.4,2.3999,2.4004,2.4007,2.4009,2.3978,2.3978,2.3978,0,0,2.4007,2.4006,2.4012,2.4012,2.401,2.4007,2.4009,2.4005,2.4004,2.4009,2.4001,2.4004,2.4007,2.4006,2.4006,2.4023,2.4016,2.4024,2.4035,2.404,2.4042,2.4044,2.405,2.4052,2.4025,2.4025,2.4025,0,2.4016,2.4021,2.4016,2.402,2.4021,2.4013,2.4019,2.4018,2.4017,2.4018,2.4013,2.4018,2.4015,2.4023,2.4027,2.4028,2.4029,2.4024,2.4042,2.4044,2.4046,2.4052,2.4054,2.4026,2.4026,2.4026,2.4026,0,2.4032,2.4036,2.4041,2.4041,2.4043,2.4048,2.4043,2.4046,2.4042,2.4039,2.4045,2.4043,2.4044,2.4045,2.4041,2.4053,2.405,2.4044,2.4034,2.405,2.4055,2.4057,2.4027,2.4027,2.4027,2.4026,0,0,2.4052,2.4052,2.4053,2.4054,2.4053,2.4056,2.4061,2.4063,2.4065,2.4065,2.407,2.4073,2.4068,2.4068,2.4064,2.4069,2.4083,2.4062,2.4062,2.4066,2.4096,2.41,2.4103,2.4079,2.4079,2.408,2.4096,0,2.4066,2.4076,2.4072,2.4082,2.4085,2.4078,2.4083,2.4083,2.4082,2.4084,2.4082,2.4085,2.4078,2.4078,2.4083,2.408,2.4089,2.4079,2.4083,2.4083,2.4083,2.4106,2.411,2.4125,2.4098,2.4099,2.4099,0,2.4083,2.4086,2.4096,2.4096,2.4097,2.4101,2.4103,2.4106,2.4107,2.4105,2.4106,2.4102,2.4107,2.4099,2.4107,2.41,2.4102,2.4101,2.4101,2.4101,2.4091,2.4105,2.413,2.4132,2.4102,2.4102,2.4102,0,2.4097,2.4103,2.411,2.411,2.411,2.4114,2.4114,2.4114,2.4116,2.4118,2.4119,2.4121,2.4122,2.4125,2.4121,2.4115,2.4129,2.412,2.4128,2.4128,2.413,2.413,2.4155,2.4132,2.4132,2.4132,2.4132,0,2.4113,2.4119,2.4116,2.412,2.4128,2.4124,2.4131,2.4131,2.4131,2.4135,2.413,2.4134,2.4129,2.4132,2.413,2.4137,2.4137,2.4136,2.4135,2.4136,2.4136,2.4136,2.4135,2.4133,2.4133,2.4133,2.4132,0,2.4128,2.4127,2.4134,2.4134,2.4134,2.414,2.414,2.4144,2.4143,2.4148,2.4149,2.4147,2.4151,2.4148,2.4152,2.415,2.4159,2.4157,2.4159,2.4159,2.4166,2.4166,2.4192,2.4195,2.4171,2.4171,2.4171,0,2.4138,2.4143,2.4144,2.4147,2.4148,2.4152,2.4155,2.4152,2.4154,2.4156,2.416,2.4164,2.4167,2.4174,2.4173,2.4176,2.4174,2.4183,2.4174,2.4175,2.4173,2.4173,2.4174,2.4184,2.4184,2.4185,2.4185,0,2.4155,2.4154,2.4158,2.4162,2.4166,2.4168,2.4171,2.4173,2.417,2.4174,2.4179,2.4181,2.4186,2.419,2.4193,2.4193,2.4189,2.4188,2.419,2.419,2.4192,2.4191,2.4164,2.4187,2.4187,2.4187,2.4186,2.4186,2.4168,2.4172,2.4174,2.4179,2.4181,2.4184,2.4188,2.4188,2.4192,2.4196,2.4195,2.42,2.4202,2.4206,2.4207,2.4211,2.4207,2.421,2.4211,2.4211,2.4212,2.4192,2.4212,2.4212,2.4212,2.4212,2.4212,0,2.4184,2.4186,2.4191,2.4195,2.4199,2.4196,2.4199,2.4202,2.4207,2.421,2.4213,2.4219,2.4224,2.4224,2.4228,2.4232,2.423,2.4233,2.4232,2.4232,2.4216,2.4213,2.4234,2.4234,2.4234,2.4234,2.4234,2.4234,2.4193,2.4201,2.4201,2.4211,2.4212,2.4218,2.422,2.4223,2.4225,2.4232,2.4237,2.4237,2.4238,2.4243,2.4247,2.4247,2.4249,2.4252,2.4251,2.4236,2.4233,2.4231,2.4229,2.4253,2.4253,2.4268,2.4268,2.4268]}]]